Location: Banff
(51.1667°N, 115.5667°W)
Time: 14:26:23
(UTC+00:00)

Tiros 1 - Pass Details

Date: 02 August 2021
Orbit: 630 x 663 km, 48.4° (Epoch: 23 September)

Event Time Altitude Azimuth Distance (km) Brightness Sun altitude
Rises 07:17:28 0° 279° (W) 2,963 10.8 -20.8°
Reaches altitude 10° 07:20:18 10° 263° (W) 2,042 9.7 -20.9°
Enters shadow 07:21:59 17° 245° (WSW) 1,635 9.0 -20.9°
